| time (UTC) | temp F | wind direction | speed MPH | gust MPH | rain 1hr in | rain 24hr in | rain mn in | humidity % | barometer mb |
| 20260505000045 | 78 | 254 | 0.0 | 8.0 | 0.00 | 0.00 | 0.00 | 80 | 1013.5 |
| 20260504234538 | 79 | 247 | 2.0 | 8.0 | 0.00 | 0.00 | 0.00 | 79 | 1013.3 |
| 20260504233037 | 81 | 253 | 5.0 | 9.0 | 0.00 | 0.00 | 0.00 | 78 | 1013.1 |
| 20260504231543 | 83 | 263 | 2.0 | 5.0 | 0.00 | 0.00 | 0.00 | 75 | 1012.9 |
| 20260504230042 | 86 | 236 | 3.0 | 8.0 | 0.00 | 0.00 | 0.00 | 66 | 1012.8 |
| 20260504224536 | 86 | 158 | 3.0 | 7.0 | 0.00 | 0.00 | 0.00 | 62 | 1012.4 |
| 20260504223034 | 87 | 131 | 4.0 | 11.0 | 0.00 | 0.00 | 0.00 | 62 | 1011.9 |
| 20260504221548 | 88 | 121 | 4.0 | 10.0 | 0.00 | 0.00 | 0.00 | 62 | 1011.9 |
| 20260504220035 | 89 | 112 | 7.0 | 14.0 | 0.00 | 0.00 | 0.00 | 62 | 1011.3 |
| 20260504214534 | 90 | 110 | 6.0 | 12.0 | 0.00 | 0.00 | 0.00 | 61 | 1011.2 |
| 20260504213042 | 91 | 105 | 6.0 | 13.0 | 0.00 | 0.00 | 0.00 | 61 | 1011.1 |
| 20260504211536 | 91 | 88 | 7.0 | 13.0 | 0.00 | 0.00 | 0.00 | 61 | 1011.1 |
| 20260504210030 | 92 | 175 | 6.0 | 13.0 | 0.00 | 0.00 | 0.00 | 60 | 1011.0 |
| 20260504204530 | 93 | 109 | 4.0 | 13.0 | 0.00 | 0.00 | 0.00 | 59 | 1010.9 |
| 20260504203040 | 93 | 100 | 6.0 | 14.0 | 0.00 | 0.00 | 0.00 | 57 | 1011.1 |
| 20260504201527 | 94 | 78 | 6.0 | 12.0 | 0.00 | 0.00 | 0.00 | 55 | 1011.2 |
| 20260504200024 | 93 | 132 | 6.0 | 12.0 | 0.00 | 0.00 | 0.00 | 55 | 1011.3 |
| 20260504194529 | 93 | 126 | 3.0 | 11.0 | 0.00 | 0.00 | 0.00 | 57 | 1011.3 |
| 20260504193021 | 93 | 92 | 7.0 | 13.0 | 0.00 | 0.00 | 0.00 | 57 | 1011.3 |
| 20260504191530 | 93 | 121 | 6.0 | 13.0 | 0.00 | 0.00 | 0.00 | 58 | 1011.5 |
| 20260504190016 | 93 | 152 | 6.0 | 12.0 | 0.00 | 0.00 | 0.00 | 58 | 1011.7 |
| 20260504184518 | 92 | 101 | 6.0 | 15.0 | 0.00 | 0.00 | 0.00 | 59 | 1011.7 |
| 20260504183013 | 92 | 173 | 7.0 | 15.0 | 0.00 | 0.00 | 0.00 | 60 | 1011.6 |
| 20260504181515 | 92 | 127 | 5.0 | 14.0 | 0.00 | 0.00 | 0.00 | 62 | 1011.9 |
| 20260504180015 | 92 | 92 | 8.0 | 13.0 | 0.00 | 0.00 | 0.00 | 59 | 1012.0 |
| 20260504174506 | 92 | 98 | 6.0 | 18.0 | 0.00 | 0.00 | 0.00 | 61 | 1012.2 |
| 20260504173004 | 91 | 136 | 6.0 | 13.0 | 0.00 | 0.00 | 0.00 | 63 | 1012.3 |
| 20260504171502 | 91 | 149 | 8.0 | 15.0 | 0.00 | 0.00 | 0.00 | 61 | 1012.5 |
| 20260504081503 | 75 | 81 | 3.0 | 11.0 | 0.00 | 0.00 | 0.00 | 90 | 1013.3 |
| 20260504080116 | 75 | 152 | 4.0 | 9.0 | 0.00 | 0.00 | 0.00 | 90 | 1013.5 |
| 20260504044532 | 78 | 142 | 3.0 | 12.0 | 0.00 | 0.00 | 0.00 | 79 | 1014.7 |
| 20260504043030 | 78 | 123 | 3.0 | 8.0 | 0.00 | 0.00 | 0.00 | 79 | 1014.9 |
| 20260504041528 | 78 | 169 | 3.0 | 7.0 | 0.00 | 0.00 | 0.00 | 78 | 1015.1 |
| 20260504040039 | 78 | 125 | 2.0 | 6.0 | 0.00 | 0.00 | 0.00 | 77 | 1015.1 |
| 20260504034525 | 78 | 86 | 3.0 | 9.0 | 0.00 | 0.00 | 0.00 | 77 | 1015.4 |
| 20260504033025 | 77 | 113 | 1.0 | 3.0 | 0.00 | 0.00 | 0.00 | 80 | 1015.3 |
| 20260504031524 | 77 | 173 | 0.0 | 0.0 | 0.00 | 0.00 | 0.00 | 79 | 1015.4 |
| 20260504030024 | 78 | 173 | 0.0 | 0.0 | 0.00 | 0.00 | 0.00 | 78 | 1015.3 |
| 20260504024523 | 79 | 173 | 0.0 | 3.0 | 0.00 | 0.00 | 0.00 | 74 | 1015.0 |
| 20260504023022 | 79 | 132 | 1.0 | 4.0 | 0.00 | 0.00 | 0.00 | 75 | 1014.9 |
| 20260504021522 | 79 | 142 | 1.0 | 2.0 | 0.00 | 0.00 | 0.00 | 75 | 1014.6 |
| 20260504020021 | 80 | 142 | 0.0 | 0.0 | 0.00 | 0.00 | 0.00 | 73 | 1014.5 |
| 20260504014525 | 81 | 142 | 2.0 | 3.0 | 0.00 | 0.00 | 0.00 | 70 | 1014.2 |
| 20260504013020 | 81 | 159 | 2.0 | 5.0 | 0.00 | 0.00 | 0.00 | 68 | 1014.0 |
| 20260504011520 | 81 | 181 | 2.0 | 7.0 | 0.00 | 0.00 | 0.00 | 69 | 1013.9 |
| 20260504010019 | 81 | 150 | 2.0 | 4.0 | 0.00 | 0.00 | 0.00 | 71 | 1013.7 |
| 20260504004523 | 81 | 105 | 2.0 | 4.0 | 0.00 | 0.00 | 0.00 | 70 | 1013.5 |
| 20260504003017 | 82 | 135 | 1.0 | 7.0 | 0.00 | 0.00 | 0.00 | 69 | 1013.3 |
| 20260504001517 | 83 | 119 | 2.0 | 8.0 | 0.00 | 0.00 | 0.00 | 69 | 1013.0 |